* Astronomy

Members Login
Username 
 
Password 
    Remember Me  
Post Info TOPIC: RADIOSCAF-B (KEDR) satellite re-entry


L

Posts: 131433
Date:
RE: RADIOSCAF-B (KEDR) satellite re-entry
Permalink  
 


Update:
The RADIOSCAF-B (KEDR) satellite re-entered the Earths atmosphere on the 4th January, 2012 @ 07:00 GMT  ± 3 hours.

RADIOSCAF-B (KEDR)
1 37772U 98067CK  12004.04884568  .13494171  12416-4  77857-3 0  4794
2 37772 051.6129 213.1240 0007478 255.9283 104.1611 16.41716225 24077

Period:       87.71 minutes
Inclination: 51.61°
Apogee:     166 km
Perigee:     156 km
Revolution Number: 2411
Predicted Location:  12.7°S, 354.3°E



__________________


L

Posts: 131433
Date:
Permalink  
 

Update:
The RADIOSCAF-B (KEDR) satellite is predicted to re-enter the Earths atmosphere on the 4th January, 2012 @ 07:00 GMT  ± 3 hours.

RADIOSCAF-B (KEDR)
1 37772U 98067CK  12004.04884568  .13494171  12416-4  77857-3 0  4794
2 37772 051.6129 213.1240 0007478 255.9283 104.1611 16.41716225 24077

Period:       88.28 minutes
Inclination: 51.61°
Apogee:     194 km
Perigee:     185 km
Revolution Number: 2411
Predicted Location:  12.7°S, 354.3°E



__________________


L

Posts: 131433
Date:
Permalink  
 

Update:
The RADIOSCAF-B (KEDR) satellite is predicted to re-enter the Earths atmosphere on the 4th January, 2012 @ 07:50 GMT  ± 7 hours.

RADIOSCAF-B (KEDR)
1 37772U 98067CK  12003.68271191  .06823844  12189-4  94980-3 0  4760
2 37772 051.6127 215.1783 0008655 246.6270 113.5983 16.34131194 24018

Period:       88.28 minutes
Inclination: 51.61°
Apogee:     194 km
Perigee:     185 km
Revolution Number: 2414
Predicted Location:  6.4°S, 177°E



__________________


L

Posts: 131433
Date:
Permalink  
 

Update:
The RADIOSCAF-B (KEDR) satellite is predicted to re-enter the Earths atmosphere on the 4th January, 2012 @ 12:06 GMT  ± 24 hours.

RADIOSCAF-B (KEDR)
1 37772U 98067CK  12002.33218241  .02341485  11929-4  88702-3 0  4722
2 37772 051.6189 222.6906 0007473 236.3897 123.8479 16.23441447 23795

Period:       89.08 minutes
Inclination: 51.63°
Apogee:     235 km
Perigee:     224 km
Revolution Number: 2415
Predicted Location:  16.9°N, 92.7°E



__________________


L

Posts: 131433
Date:
Permalink  
 

Update:
The RADIOSCAF-B (KEDR) satellite is predicted to re-enter the Earths atmosphere on the 4th January, 2012 @ 07:46 GMT  ± 48 hours.

RADIOSCAF-B (KEDR)
1 37772U 98067CK  11365.85199152 +.01659792 +25431-2 +10370-2 0 04660
2 37772 051.6292 230.8206 0008609 225.0395 134.9821 16.17700567023556

Period:       89.08 minutes
Inclination: 51.63°
Apogee:     235 km
Perigee:     224 km
Revolution Number: 2412
Predicted Location:  0.4°N, 172.4°E



__________________


L

Posts: 131433
Date:
Permalink  
 

Update:
The RADIOSCAF-B (KEDR) satellite is predicted to re-enter the Earths atmosphere on the 4th January, 2012 @ 05:50 GMT  ± 48 hours.

RADIOSCAF-B (KEDR)
1 37772U 98067CK  11364.92453855 +.01375525 +14178-2 +10376-2 0 04627
2 37772 051.6264 235.8877 0008518 215.4374 144.6039 16.14819870023401

Period:       89.24 minutes
Inclination: 51.63°
Apogee:     243 km
Perigee:     231 km
Revolution Number: 2411
Predicted Location:  48.1°N, 83.8°E



__________________


L

Posts: 131433
Date:
Permalink  
 

The RADIOSCAF-B (KEDR) amateur radio satellite that was launched on the 20th November, 1998, from the ISS, is predicted to re-enter the Earths atmosphere on (or after) the 30th December, 2011 @ --:-- GMT  ± -- hours.

RADIOSCAF-B (KEDR)
1 37772U 98067CK  11363.12738860  .00944760  52788-3  94753-3 0  4512
2 37772 051.6274 245.6536 0009297 201.1344 158.9472 16.10432873 23114

Period:       89.53 minutes
Inclination: 51.63°
Apogee:     257 km
Perigee:     245 km
Revolution Number: -
Predicted Location:  -

Receiving ARISSat-1 / RADIOSCAF-B / KEDR - 2011-08-27



__________________
Page 1 of 1  sorted by
 
Quick Reply

Please log in to post quick replies.



Create your own FREE Forum
Report Abuse
Powered by ActiveBoard